EHI
0 1 2 3 2 1 0 0 0 1 2 3 2 1 0 0 0 0 0 0 0 1 2 3 3 2 1 0 0 0 0 0 0 0 0 0 1 2 3 2 1 2 5
0 1 2 3 1 1 0 0 0 0 1 1 1 0 0 0 0 0 0 0 0 1 2 3 2 1 0 0 0 0 0 0 0 0 0 0 1 2 3 3 2 3 4
0 1 3 3 2 1 0 0 0 0 0 0 0 0 0 0 0 0 0 0 0 1 2 2 1 0 0 0 0 0 0 0 0 0 0 0 0 2 4 3 3 4 4
0 1 3 5 3 1 0 0 0 0 0 0 0 0 0 0 0 0 0 0 0 1 1 1 0 0 0 0 0 0 0 0 0 0 0 0 0 2 3 3 3 4 5
0 1 4 6 4 2 0 0 0 0 0 0 0 0 0 0 0 0 0 0 0 0 0 0 0 0 0 0 0 0 1 1 0 0 0 0 0 1 2 2 2 2 3
0 1 3 4 3 2 1 1 1 0 0 0 0 0 0 0 0 0 0 0 0 0 0 0 0 0 0 0 0 0 1 1 0 0 0 0 0 1 1 1 0 1 1
0 0 1 1 1 1 2 2 2 1 1 1 0 0 0 0 0 0 0 0 0 0 0 0 0 0 0 0 0 0 1 1 0 0 0 0 0 0 0 0 0 0 0
0 0 0 1 1 1 2 4 3 2 1 1 0 0 0 0 0 1 0 0 0 1 0 0 0 0 0 0 0 0 0 0 0 0 0 0 0 0 0 0 0 0 0
0 0 0 1 1 1 2 4 4 2 1 0 0 0 0 0 0 0 0 0 0 0 0 1 1 1 1 1 0 0 0 0 0 0 0 0 0 0 0 0 0 0 0
0 0 0 0 0 0 1 2 3 2 1 0 0 0 0 0 0 0 0 0 0 1 1 2 3 3 3 2 1 0 0 0 0 0 0 0 0 0 0 0 0 0 0
0 0 0 0 0 0 0 0 1 1 0 0 0 0 1 0 0 0 1 1 2 2 3 3 4 5 5 4 2 0 0 0 0 0 0 0 0 0 0 0 0 0 0
0 0 0 0 0 0 0 0 0 0 0 0 0 0 0 0 0 1 1 2 3 3 3 3 3 4 4 4 3 1 0 0 0 0 0 0 0 0 0 0 0 0 0
0 0 0 0 0 0 0 0 0 1 1 0 0 0 1 1 1 2 2 3 4 4 3 3 2 1 1 2 2 1 0 0 0 0 0 0 0 0 0 0 1 1 1
0 0 0 0 0 0 0 0 0 1 1 0 0 1 2 3 3 2 2 3 4 4 3 2 1 0 0 0 0 0 0 0 0 0 1 0 0 0 0 0 1 2 2
0 0 0 0 0 0 0 0 0 1 1 1 0 1 2 4 3 3 4 4 4 4 3 2 1 1 0 0 1 1 0 0 0 0 0 0 0 0 0 0 1 3 4
0 0 0 0 0 0 0 0 0 0 1 1 1 0 1 2 2 3 4 4 4 2 3 3 2 1 0 0 1 1 0 0 0 0 0 0 0 1 1 0 1 3 4
0 0 0 0 0 0 1 1 0 0 1 1 1 0 0 0 1 2 2 3 3 2 3 3 1 0 0 0 1 1 0 0 0 0 0 0 0 1 2 2 2 3 4
0 0 0 0 0 0 1 1 0 0 0 1 1 0 0 0 1 2 1 1 1 1 2 1 0 0 0 0 0 0 0 0 0 0 0 0 0 1 3 4 4 4 2
1 1 2 2 1 1 1 1 0 0 0 0 1 0 0 1 1 1 1 0 0 0 1 1 0 0 0 0 0 0 0 0 0 0 0 0 1 1 3 4 5 4 3
2 3 5 5 5 3 1 1 0 0 0 0 0 0 0 0 0 0 0 0 1 1 2 2 1 1 1 0 0 0 0 0 0 0 0 0 1 2 3 3 2 2 3
4 4 6 8 8 7 4 3 1 0 0 0 0 0 0 1 1 1 1 1 2 3 3 2 1 1 1 0 0 0 0 0 0 0 0 0 1 3 3 2 1 2 3
6 6 7 11 12 10 8 5 2 0 0 1 0 0 0 1 2 2 2 1 1 2 1 1 2 2 1 1 0 0 0 1 1 1 0 0 1 2 3 2 2 3 3
10 8 9 13 15 14 11 7 3 1 1 1 0 0 0 1 1 1 1 1 0 0 0 1 2 2 1 1 0 0 0 1 1 0 0 0 1 3 3 2 3 4 4
9 9 11 16 18 16 13 9 5 3 3 1 0 1 1 1 1 0 0 0 1 1 1 0 1 1 1 1 2 2 2 2 1 1 0 1 2 3 4 3 3 4 5
6 7 11 17 19 17 14 12 9 8 6 4 2 2 2 1 1 0 0 0 1 2 2 2 1 1 1 2 4 5 5 4 3 3 2 2 2 3 4 3 3 3 3
7 5 9 17 19 16 15 14 13 11 8 6 5 4 2 1 1 0 0 0 1 3 3 3 3 2 2 3 5 6 6 5 5 5 4 2 2 3 4 3 2 1 1
Wind_Speed
5 8 9 9 10 10 10 10 10 10 11 11 11 12 12 12 11 11 11 10 10 10 10 10 10 9 8 8 7 5 5 6 8 8 8 8 8 7 7 8 8 7 9
7 9 10 9 10 10 10 10 10 10 10 10 11 11 11 11 11 10 10 9 9 9 9 9 9 8 8 7 6 5 6 6 8 8 9 9 9 7 6 6 3 6 8
8 9 10 10 9 10 10 9 9 9 10 10 10 10 10 10 10 10 9 9 9 9 8 8 8 8 8 7 6 6 7 8 8 8 7 6 8 8 7 6 6 7 7
8 8 10 10 9 9 9 9 8 8 9 10 9 9 9 9 9 9 9 8 9 8 8 7 7 7 7 7 6 6 7 7 6 6 4 4 5 8 6 6 6 7 7
9 8 11 9 8 8 9 8 8 8 8 9 8 8 9 9 9 8 8 8 8 8 7 7 7 6 7 6 6 6 6 5 4 4 3 3 4 6 5 5 6 6 6
9 9 12 8 8 8 9 9 8 8 8 8 8 8 8 8 8 8 8 8 8 8 7 7 7 7 6 6 6 5 5 3 6 3 3 3 4 5 5 5 5 6 6
9 9 11 9 8 8 8 8 8 8 7 7 8 8 8 8 8 8 8 8 8 8 8 8 8 7 6 6 6 5 4 2 2 3 3 3 5 5 4 4 4 5 6
8 9 11 10 8 8 7 8 8 7 7 7 7 8 8 8 8 8 8 9 8 8 8 8 7 7 6 6 6 5 3 4 2 3 3 5 6 5 5 4 4 4 5
7 7 8 9 9 9 8 7 7 7 7 7 7 7 7 8 8 7 7 8 8 7 7 6 6 6 6 6 5 4 1 4 2 2 3 4 5 4 4 4 4 4 4
6 6 6 7 7 6 9 9 8 7 7 6 6 6 6 7 8 7 7 8 7 6 6 6 6 5 5 5 5 3 1 5 1 3 3 6 6 4 4 3 4 4 4
6 5 5 6 6 5 6 8 8 8 7 6 6 6 4 4 6 6 9 7 6 6 6 5 4 4 4 6 5 3 4 1 3 3 4 8 5 4 4 4 4 4 4
6 5 5 5 5 4 4 5 4 4 5 3 3 3 3 3 3 5 8 6 5 5 6 5 3 4 5 4 6 6 1 2 2 3 6 6 4 3 3 3 3 4 4
6 5 5 5 4 3 3 3 2 2 3 3 4 3 3 2 3 3 3 5 5 5 4 5 5 2 2 2 1 1 2 2 2 2 7 7 4 3 4 3 3 3 4
5 5 5 5 4 3 2 2 2 2 2 2 3 2 2 1 2 2 1 2 2 2 2 1 1 2 2 2 2 2 2 1 2 3 6 6 4 3 3 3 3 4 4
5 5 5 4 4 3 2 1 2 2 2 3 2 2 1 2 2 3 2 1 1 2 2 1 2 2 1 1 1 2 2 3 3 2 4 6 4 3 2 2 3 4 4
5 5 5 5 5 4 3 2 2 2 2 2 2 3 1 2 2 2 2 1 2 1 2 1 1 1 1 1 1 2 2 2 3 1 2 5 6 4 2 2 2 3 4
5 5 5 5 5 4 3 3 2 2 3 2 2 3 2 2 2 1 1 1 2 2 2 1 1 0 1 1 2 2 1 1 1 1 1 1 4 6 4 3 2 2 3
5 5 5 4 5 5 3 2 1 1 1 2 2 3 3 1 2 1 1 1 1 0 0 1 1 0 1 1 1 1 1 1 1 1 1 1 0 2 6 5 3 3 3
5 5 5 4 5 4 4 3 2 2 1 1 1 2 2 2 2 2 0 1 1 1 0 0 2 1 0 0 1 1 1 1 1 1 1 0 0 0 2 6 6 4 3
6 5 5 6 5 4 4 3 2 2 2 1 1 1 2 2 2 2 2 1 1 1 0 0 1 0 1 1 1 1 1 0 1 1 1 1 1 1 1 2 4 5 6
7 6 6 5 5 4 3 3 2 2 2 2 1 1 1 1 1 2 1 1 1 0 1 1 1 2 1 1 1 2 2 2 1 1 1 0 1 1 1 1 1 1 4
8 7 7 6 6 6 3 2 2 1 2 1 0 1 1 1 1 2 1 2 1 1 1 1 1 2 1 1 2 2 2 3 3 2 1 1 1 1 2 2 1 1 1
8 8 6 6 6 6 5 4 3 2 2 2 2 2 2 2 2 1 1 2 1 2 1 1 1 2 1 1 2 3 3 1 1 3 2 1 1 1 1 1 2 2 2
8 8 7 7 6 6 6 5 4 3 2 2 1 1 2 2 1 1 1 1 2 2 1 2 1 2 2 2 1 1 3 3 3 1 2 2 2 1 1 1 1 2 2
8 8 7 7 7 6 6 5 5 4 2 2 2 2 2 2 2 1 1 1 1 2 1 1 1 3 2 2 2 1 1 2 4 3 1 1 1 1 1 2 1 1 2
9 8 8 7 7 7 6 5 5 4 3 2 2 2 3 2 2 2 2 2 2 1 1 2 2 2 2 3 3 2 2 2 2 2 2 2 2 1 1 1 2 1 2
Wind_Direction
98 97 99 100 102 103 103 104 107 109 111 115 117 117 116 117 116 117 118 120 123 122 124 124 123 121 121 119 117 119 130 140 143 139 139 138 136 140 146 158 168 143 130
103 101 105 103 104 102 101 101 103 106 106 110 115 117 118 120 120 120 120 121 122 123 123 119 120 119 116 111 109 111 123 132 140 145 150 149 142 143 147 155 153 118 141
104 106 112 101 103 102 101 98 97 101 101 105 110 115 117 119 123 125 124 123 123 122 120 121 120 115 111 107 103 100 111 120 132 148 178 160 137 138 145 148 139 139 148
101 102 98 99 103 104 105 102 99 101 103 105 108 113 116 116 119 125 125 124 124 122 122 120 118 115 113 109 104 103 109 117 134 178 179 130 128 125 147 157 153 152 156
100 102 100 104 105 106 108 106 104 99 104 108 111 113 114 115 116 116 114 116 119 119 117 115 113 110 110 106 104 105 111 128 160 196 107 117 117 122 143 154 154 159 162
116 110 104 108 102 101 106 108 106 102 104 112 115 113 113 114 117 116 112 113 110 113 111 110 106 105 108 106 105 113 120 155 210 130 116 116 109 117 133 147 153 159 162
113 109 108 106 101 99 99 104 107 107 104 107 116 113 111 112 113 111 110 109 107 109 107 104 101 101 106 109 110 115 127 209 235 107 120 108 95 112 124 138 150 159 162
109 109 110 117 108 102 102 104 104 104 106 104 105 112 113 111 109 107 106 107 107 105 101 100 99 100 102 106 110 108 117 267 164 113 111 94 96 119 127 130 137 155 162
110 112 112 120 124 125 113 104 105 103 106 108 103 107 114 117 116 112 111 110 107 103 101 101 100 100 98 102 110 106 101 296 290 106 117 102 116 133 137 144 150 156 165
114 110 112 113 111 124 126 115 107 104 104 106 105 104 117 133 132 131 129 108 104 102 102 102 100 104 104 106 112 120 190 255 57 100 105 105 127 141 148 154 159 156 156
119 117 120 118 117 118 113 120 130 128 121 134 130 138 164 141 130 132 91 97 103 107 110 108 104 118 143 137 131 169 223 232 72 64 74 95 127 147 157 165 167 166 161
132 135 131 125 116 122 114 122 131 128 119 114 102 120 110 98 96 102 114 118 119 131 139 128 139 181 213 145 148 195 188 83 82 84 87 100 118 150 160 159 162 169 173
135 134 130 123 130 128 122 127 110 107 116 127 120 125 109 118 125 125 131 145 145 161 148 147 184 162 98 73 59 87 61 51 58 68 91 97 103 139 150 150 160 174 177
137 134 128 124 121 112 100 114 136 131 128 126 125 136 119 108 109 103 100 94 122 113 104 102 99 80 62 71 66 60 84 74 67 66 89 97 97 120 139 152 164 172 171
138 143 132 132 126 134 134 181 118 117 123 124 124 113 114 123 115 107 100 93 92 101 125 106 77 81 76 110 81 69 63 70 56 57 100 109 113 118 131 142 155 164 169
145 146 143 153 143 152 151 151 135 135 139 143 134 123 138 110 108 136 136 106 97 94 72 72 93 125 106 69 75 81 59 65 76 51 88 126 131 129 129 138 156 160 169
151 150 155 162 152 162 161 167 153 161 152 149 134 139 161 143 131 168 123 129 80 83 108 116 103 141 142 134 115 106 113 81 77 76 62 84 141 144 136 131 134 152 170
154 155 167 166 156 164 168 179 162 156 142 156 155 153 165 153 175 215 167 112 103 131 139 123 159 86 78 138 124 124 123 136 146 152 154 159 204 134 144 144 151 158 179
166 165 169 165 166 169 166 173 182 165 177 191 176 175 162 187 200 222 171 107 193 185 229 299 82 350 131 82 158 161 176 175 155 152 122 155 119 162 134 143 162 170 181
172 174 174 171 172 179 177 178 187 177 180 180 195 176 196 200 208 256 186 168 238 196 187 65 85 284 282 265 278 112 233 177 185 123 216 147 151 175 157 134 169 169 177
175 179 182 182 173 189 187 196 186 185 183 179 193 167 213 240 198 244 269 166 239 206 284 241 240 188 217 249 244 203 173 171 147 162 212 208 154 156 153 156 208 168 168
179 182 183 185 184 195 185 199 210 215 200 189 179 135 223 221 244 215 235 234 210 206 220 245 255 287 266 219 286 275 199 163 181 163 182 194 211 190 178 171 159 191 245
184 187 188 186 187 195 191 192 191 189 216 185 181 174 195 200 210 279 258 259 259 254 215 238 242 255 280 250 298 308 311 4 127 151 169 172 196 247 228 181 183 186 211
189 185 187 187 190 191 194 203 208 213 213 198 202 166 188 195 216 219 234 242 265 278 243 239 185 260 255 260 199 266 312 342 305 215 176 155 167 207 248 258 191 184 201
188 185 183 185 189 191 200 200 213 221 216 205 196 174 218 186 214 224 213 222 234 257 270 294 270 273 264 274 276 250 238 230 260 278 280 253 207 189 201 219 229 215 194
186 186 181 180 186 189 195 199 209 218 219 219 214 203 209 191 194 191 213 221 232 243 225 243 254 239 272 286 292 291 274 271 268 274 271 255 248 206 214 219 225 211 215